Regional Weather Roundup
Issued by NWS

Home | Current Version | Previous Version | Text Only | Print | Product List | Glossary Off
Versions: 1 2 3 4 5 6 7 8 9 10 11 12 13 14 15 16 17 18 19 20 21 22 23 24 25 26 27 28 29 30 31 32 33 34 35 36 37 38 39 40 41 42 43 44 45 46 47 48 49 50

000
ASUS43 KMPX 041801
RWRMN
WEATHER ROUNDUP FOR MINNESOTA
NATIONAL WEATHER SERVICE TWIN CITIES/CHANHASSEN MN
100 PM CDT TUE AUG 04 2015


NOTE: "FAIR" INDICATES FEW OR NO CLOUDS BELOW 12,000 FEET WITH NO
SIGNIFICANT WEATHER AND/OR OBSTRUCTIONS TO VISIBILITY. N/A MEANS
CURRENT SKY AND/OR WEATHER CONDITIONS ARE NOT AVAILABLE.

MNZ060>063-068>070-041900-
   Twin Cities Metro

CITY           SKY/WX    TMP DP  RH WIND       PRES   REMARKS
TWIN CITIES    MOSUNNY   78  49  35 NW10G18   30.00S
6HR MIN TEMP:  61; 6HR MAX TEMP:  79;

ST PAUL        SUNNY     79  51  37 W10       29.99F
CRYSTAL        SUNNY     79  52  38 W9        29.98F
BLAINE         MOSUNNY   79  54  41 MISG      29.99
LAKEVILLE      MOSUNNY   75  54  46 W8        30.01F
EDEN PRAIRIE   SUNNY     78  52  40 SW8       29.99F
6HR MIN TEMP:  57; 6HR MAX TEMP:  79; 6HR PCP: TRACE;

SOUTH ST PAUL  SUNNY     78  48  34 W13       29.99F
LAKE ELMO      FAIR      77  55  47 W7        30.00F
$$
MNZ001>005-007-008-013>017-022>024-027-028-041900-
   Northwest Minnesota

CITY           SKY/WX    TMP DP  RH WIND       PRES   REMARKS
BEMIDJI        MOSUNNY   71  52  50 NW9G16    30.01F
HALLOCK        SUNNY     70  52  52 N7        30.03R
ROSEAU         SUNNY     66  55  68 N6        30.03S
WARROAD        SUNNY     63  54  72 E9        30.04S
THIEF RVR FALL MOSUNNY   70  52  52 N6        30.03S
CROOKSTON      SUNNY     72  55  56 N12       30.02F
FOSSTON        MOSUNNY   73  52  46 CALM      30.03S
DETROIT LAKES  SUNNY     73  46  38 NW10      30.03S
MOORHEAD       SUNNY     73  54  49 NE7       30.01F
PARK RAPIDS    SUNNY     76  49  38 N12       30.00F
MAHNOMEN       FAIR      70  54  56 NW7       30.02F
$$
MNZ006-009>011-018-025>026-041900-
   North Central Minnesota

CITY           SKY/WX    TMP DP  RH WIND       PRES   REMARKS
BAUDETTE       PTSUNNY   64  51  62 N10       30.03S
FLAG ISLAND    SUNNY     61  48  63 NE6       30.03S
INTL FALLS     PTSUNNY   61  49  64 NE6       30.03S
6HR MIN TEMP:  52; 6HR MAX TEMP:  62;

WASKISH        MOSUNNY   70  54  56 NW7       30.01F
BIG FORK       MOSUNNY   66  52  59 CALM      30.01S
LONGVILLE      SUNNY     72  54  53 NW7       30.00F
GRAND RAPIDS   PTSUNNY   70  50  49 NW9G18    30.01S
CRANE LAKE     CLOUDY    59  48  67 N3        30.03R
ORR            CLOUDY    63  48  59 NW5       29.99S
COOK           PTSUNNY   63  52  67 N6        30.01F
WALKER         FAIR      70  53  53 W10G16    30.00F
$$
MNZ012-019>021-037-041900-
   Northeast Minnesota

CITY           SKY/WX    TMP DP  RH WIND       PRES   REMARKS
DULUTH         PTSUNNY   70  52  52 NW9       29.98F
6HR MIN TEMP:  55; 6HR MAX TEMP:  72;

ELY            CLOUDY    61  48  63 NW6       30.01R
HIBBING        CLOUDY    68  50  52 N12       30.00S
EVELETH        MOSUNNY   64  46  52 NW8       30.01S
TWO HARBORS    CLOUDY    70  57  64 NW6       29.96S
SILVER BAY     CLOUDY    66  52  59 W6        29.97S
GRAND MARAIS     N/A     53  49  86 W6        29.97S
G MARAIS ARPRT CLOUDY    59  46  63 W6        30.00R
$$
MNZ029>031-032-039>041-046>048-054>057-064-041900-
   West Central Minnesota

CITY           SKY/WX    TMP DP  RH WIND       PRES   REMARKS
FERGUS FALLS   SUNNY     77  52  41 NW8       29.99F
WHEATON        SUNNY     75  48  38 CALM      30.01S
MORRIS         SUNNY     79  54  41 N6        29.99F
ALEXANDRIA     SUNNY     77  51  40 NW9       30.02F
ELBOW LAKE     FAIR      76  50  40 N7        30.00F
WADENA         SUNNY     75  48  38 N9G20     30.00S
GLENWOOD       SUNNY     77  50  38 W9        30.02S
APPLETON       SUNNY     79  45  29 W3        29.99S
BENSON         SUNNY     79  48  34 N7        30.00S
ORTONVILLE     SUNNY     79  45  29 NE3       29.99F
MADISON        MOSUNNY   79  48  34 CALM      29.99F
WILLMAR        FAIR      79  52  38 SW5       30.01F
$$
MNZ033>034-036-042>043-049>051-058-059-041900-
   Central Minnesota

CITY           SKY/WX    TMP DP  RH WIND       PRES   REMARKS
ST CLOUD       MOSUNNY   78  52  40 NW13      29.99S
6HR MIN TEMP:  52; 6HR MAX TEMP:  79;

SAUK CENTRE    FAIR      76  53  44 W8G16     30.00F
PAYNESVILLE    MOSUNNY   75  47  36 SW5       30.02S
AITKIN         MOSUNNY   73  54  49 NW8       29.98S
PINE RIVER     MOSUNNY   73  52  46 NW6       30.03S
BRAINERD       SUNNY     76  49  38 NW9G18    29.99F
STAPLES        SUNNY     77  46  33 NW8       29.99F
LONG PRAIRIE   FAIR      77  50  38 W12G17    30.01S
LITCHFIELD     SUNNY     79  48  34 NW5       30.01F
BUFFALO        SUNNY     76  52  43 SW5       30.01S
$$
MNZ037-044-045-052-053-041900-
   East Central Minnesota

CITY           SKY/WX    TMP DP  RH WIND       PRES   REMARKS
PRINCETON      SUNNY     79  55  44 W8        29.99S
MORA           SUNNY     75  52  43 N6        29.99F
CAMBRIDGE      SUNNY     79  57  47 NW7       29.97S
RUSH CITY      SUNNY     77  55  47 W7        29.98F
MOOSE LAKE     MOSUNNY   73  50  43 W7        29.96F
HINCKLEY       FAIR      73  54  49 W8        29.98F
CLOQUET        MOSUNNY   72  48  43 NW12      29.98S
MCGREGOR       MOSUNNY   73  50  43 NW10      29.99F
$$
MNZ071>073-080-081-089-090-097-098-041900-
   Southwest Minnesota

CITY           SKY/WX    TMP DP  RH WIND       PRES   REMARKS
MONTEVIDEO     SUNNY     81  57  44 CALM      30.01F
GRANITE FALLS  SUNNY     77  50  37 SE3       30.01F
CANBY          MOSUNNY   78  53  42 E6        30.00F
MARSHALL       MOSUNNY   79  50  36 S6        30.02S
REDWOOD FALLS  MOSUNNY   79  44  28 S10       30.00F
OLIVIA         SUNNY     73  46  38 NW3       30.00F
PIPESTONE      CLOUDY    75  57  53 SE9       30.01S
WINDOM         CLOUDY    75  46  35 CALM      30.02F
WORTHINGTON    CLOUDY    73  55  53 S12       30.02F
JACKSON        CLOUDY    77  52  41 SE8       30.03F
SLAYTON        PTSUNNY   74  53  47 CALM      30.03F
$$
MNZ065>067-074>077-082>085-091>093-041900-
   South Central Minnesota

CITY           SKY/WX    TMP DP  RH WIND       PRES   REMARKS
MANKATO        PTSUNNY   75  48  38 S3        30.02F
NEW ULM        PTSUNNY   77  43  29 SW3       30.01F
ST JAMES       PTSUNNY   77  52  41 SE3       30.02F
FAIRMONT       CLOUDY    73  48  40 SE5       30.02F
GLENCOE        MOSUNNY   78  53  43 SW3       30.00F
FARIBAULT      PTSUNNY   75  55  50 W5        30.03F
OWATONNA       PTSUNNY   75  50  41 SW5       30.03F
WASECA         PTSUNNY   73  48  40 CALM      30.04F
ALBERT LEA     PTSUNNY   73  48  40 N3        30.03F
$$
MNZ078>079-086>088-094>096-041900-
   Southeast Minnesota

CITY           SKY/WX    TMP DP  RH WIND       PRES   REMARKS
ROCHESTER      PTSUNNY   73  56  54 VRB3      30.04F
6HR MIN TEMP:  55; 6HR MAX TEMP:  74;

RED WING       MOSUNNY   81  48  32 W12G17    29.99S
STANTON        MOSUNNY   77  52  41 W6        30.00F
DODGE CENTER   PTSUNNY   73  52  46 SW7       30.04F
WINONA         MOSUNNY   77  52  41 N3        30.01S
AUSTIN         PTSUNNY   75  46  35 CALM      30.03F
PRESTON        PTSUNNY   72  52  49 W8        30.04F
$$
ABBREVIATIONS USED IN REMARKS
   TC - TEMPERATURES IN CELSIUS
  WCI - WIND CHILL INDEX
   HX - HEAT INDEX
  VSB - VISIBILITY
$$


USA.gov is the U.S. government's official web portal to all federal, state and local government web resources and services.